Regional Weather Roundup
Issued by NWS

Home | Current Version | Previous Version | Text Only | Print | Product List | Glossary On
Versions: 1 2 3 4 5 6 7 8 9 10 11 12 13 14 15 16 17 18 19 20 21 22 23 24 25 26 27 28 29 30 31 32 33 34 35 36 37 38 39 40 41 42 43 44 45 46 47 48 49 50
000
ASUS44 KJAN 080310
RWRMS

MISSISSIPPI HOURLY WEATHER ROUNDUP
NATIONAL WEATHER SERVICE JACKSON MS
900 PM CST SUN FEB 07 2016

NOTE: "FAIR: INDICATES FEW OR NO CLOUDS BELOW 12,000 FEET WITH NO
SIGNIFICANT WEATHER AND/OR OBSTRUCTIONS TO VISIBILITY.

MSZ001>002-007>008-010>013-018>021-025>028-034>036-080400-
NORTHWEST MISSISSIPPI

CITY           SKY/WX    TMP DP  RH WIND       PRES   REMARKS
CLEVELAND      FAIR      46  39  75 SW9       30.04F
GREENWOOD      CLEAR     42  34  73 S6        30.06S
GREENVILLE     CLEAR     47  32  56 SW9       30.06S
OLIVE BRANCH   CLEAR     41  32  70 S7        29.99F
OXFORD         FAIR      45  30  57 SW6       30.03F
TUNICA         CLEAR     43  32  65 SW8       30.02S
$$

MSZ003>006-009-014>017-022>024-029>033-037>039-080400-
NORTHEAST MISSISSIPPI

CITY           SKY/WX    TMP DP  RH WIND       PRES   REMARKS
COLUMBUS AFB   CLEAR     39  29  67 SW5       30.03S
CORINTH        FAIR      48  28  46 SW9       29.98F
GOLDN TRIANGLE CLEAR     45  25  45 SW5       30.04S
STARKVILLE     FAIR      36  32  87 CALM      30.05S
TUPELO         CLEAR     46  27  47 S5        30.02F
$$

MSZ040-058-080400-
CENTRAL MISSISSIPPI

CITY           SKY/WX    TMP DP  RH WIND       PRES   REMARKS
JACKSON INTL   CLEAR     49  30  48 SW5       30.10R
JACKSON HAWKNS CLEAR     49  28  44 SW5       30.10R
MERIDIAN KEY   CLEAR     37  30  75 CALM      30.08S
MERIDIAN NAS   CLEAR     38  27  64 SW3       30.07F
VICKSBURG      CLEAR     48  34  58 SW3       30.12R
$$

MSZ059>079-080400-
SOUTH MISSISSIPPI

CITY           SKY/WX    TMP DP  RH WIND       PRES   REMARKS
BROOKHAVEN     FAIR      48  32  53 SW6       30.13S
HATTIESBURG    CLEAR     49  29  46 SW8       30.13R
MCCOMB         CLEAR     44  30  57 SW5       30.13S
NATCHEZ        CLEAR     48  28  46 SW7       30.13S
PINE BELT      CLEAR     41  28  60 SW5       30.11S
$$

MSZ080>082-080400-
COASTAL MISSISSIPPI

CITY           SKY/WX    TMP DP  RH WIND       PRES   REMARKS
BAY ST LOUIS   CLEAR     43  28  56 SW6       30.16S
BILOXI         CLEAR     51  41  70 SW14G20   30.14F
PASCAGOULA     CLEAR     48  38  68 SW3       30.15S
GULFPORT       CLEAR     49  37  63 SW3       30.15S
$$



USA.gov is the U.S. government's official web portal to all federal, state and local government web resources and services.